Valparaiso, FL

4:54 PM CDT on April 25, 2017 (GMT -0500)
Eglin Air Force Base

Weather History for KVPS - March, 2013

Change the Weather History Date:

Wednesday, March 13, 2013

  Actual Average Record
Temperature  
Mean Temperature 54 °F -  
Max Temperature 68 °F 72 °F 86 °F (1989)
Min Temperature 40 °F 48 °F 28 °F (1969)
Degree Days  
Heating Degree Days 12    
Growing Degree Days 4 (Base 50)    
Moisture  
Dew Point 29 °F    
Average Humidity 42    
Maximum Humidity 78    
Minimum Humidity 17    
Precipitation  
Precipitation 0.00 in - - ()
Sea Level Pressure  
Sea Level Pressure 30.25 in    
Wind  
Wind Speed 8 mph (NNW)    
Max Wind Speed 18 mph    
Max Gust Speed 24 mph    
Visibility 10 miles    
Events      
Averages and records for this station are not official NWS values.
T = Trace of Precipitation, MM = Missing Value Source: NWS Daily Summary

Daily Weather History Graph

Daily Weather History Graph

Search for Another Location

Airport or City:

Trip Planner

Search our weather history database for the weather conditions in past years. The results will help you decide how hot, cold, wet, or windy it might be!

Date:

Astronomy

Mar. 13, 2013 Rise Set
Actual Time 6:58 AM CDT 6:53 PM CDT
Civil Twilight 6:34 AM CDT 7:17 PM CDT
Nautical Twilight 6:06 AM CDT 7:45 PM CDT
Astronomical Twilight 5:38 AM CDT 8:13 PM CDT
Moon 7:48 AM CDT (3/13) 8:56 PM CDT (3/13)
Length of Visible Light 12h 43m
Length of Day
11h 55m
Waxing Crescent, 4% of the Moon is Illuminated
Mar 13
Waxing Crescent
Mar 19
First Quarter
Mar 27
Full
Apr 2
Last Quarter
Apr 10
New

Hourly Weather History & Observations

Time (CDT) Temp. Windchill Dew Point Humidity Pressure Visibility Wind Dir Wind Speed Gust Speed Precip Events Conditions
12:55 AM 43.9 °F 39.9 °F 36.0 °F 74% 30.19 in 10.0 mi NW 6.9 mph - N/A   Scattered Clouds
1:55 AM 47.3 °F - 34.7 °F 62% 30.19 in 10.0 mi NW 6.9 mph - N/A   Scattered Clouds
2:55 AM 44.2 °F 41.0 °F 34.9 °F 70% 30.20 in 10.0 mi NNW 5.8 mph - N/A   Partly Cloudy
3:55 AM 44.2 °F 41.0 °F 34.5 °F 69% 30.21 in 10.0 mi NNW 5.8 mph - N/A   Partly Cloudy
4:56 AM 42.6 °F 40.9 °F 34.5 °F 73% 30.23 in 10.0 mi NNW 3.5 mph - N/A   Partly Cloudy
5:55 AM 43.3 °F 39.2 °F 34.5 °F 71% 30.24 in 10.0 mi NNW 6.9 mph - N/A   Partly Cloudy
6:58 AM 40.5 °F 38.4 °F 34.2 °F 78% 30.26 in 10.0 mi NNW 3.5 mph - N/A   Partly Cloudy
7:55 AM 45.9 °F 43.6 °F 34.9 °F 66% 30.29 in 10.0 mi NW 4.6 mph - N/A   Partly Cloudy
8:55 AM 54.5 °F - 35.1 °F 48% 30.29 in 10.0 mi NNW 5.8 mph - N/A   Partly Cloudy
9:55 AM 59.5 °F - 31.8 °F 35% 30.30 in 10.0 mi NNW 10.4 mph - N/A   Clear
10:56 AM 63.1 °F - 31.6 °F 31% 30.30 in 10.0 mi NW 15.0 mph 20.7 mph N/A   Clear
11:55 AM 65.1 °F - 31.6 °F 29% 30.29 in 10.0 mi NW 13.8 mph - N/A   Clear
12:55 PM 65.1 °F - 31.6 °F 29% 30.27 in 10.0 mi NW 10.4 mph 23.0 mph N/A   Clear
1:59 PM 66.9 °F - 32.0 °F 27% 30.24 in 10.0 mi NW 17.3 mph 24.2 mph N/A   Clear
2:57 PM 67.5 °F - 27.7 °F 23% 30.22 in 10.0 mi NW 16.1 mph 23.0 mph N/A   Clear
3:55 PM 67.8 °F - 25.5 °F 20% 30.20 in 10.0 mi North 15.0 mph 19.6 mph N/A   Partly Cloudy
4:55 PM 66.6 °F - 19.4 °F 17% 30.21 in 10.0 mi NW 18.4 mph 23.0 mph N/A   Partly Cloudy
5:56 PM 64.8 °F - 19.2 °F 17% 30.22 in 10.0 mi NNW 15.0 mph 24.2 mph N/A   Partly Cloudy
6:56 PM 59.7 °F - 20.7 °F 22% 30.24 in 10.0 mi NNW 8.1 mph - N/A   Partly Cloudy
7:58 PM 55.9 °F - 19.4 °F 24% 30.26 in 10.0 mi NW 9.2 mph - N/A   Partly Cloudy
8:56 PM 52.3 °F - 19.4 °F 27% 30.27 in 10.0 mi NNW 5.8 mph - N/A   Scattered Clouds
9:55 PM 51.4 °F - 20.5 °F 30% 30.30 in 6.0 mi NNW 10.4 mph - N/A   Smoke
10:55 PM 49.5 °F - 21.2 °F 33% 30.33 in 6.0 mi NNW 5.8 mph - N/A   Smoke
11:55 PM 45.9 °F 42.9 °F 24.3 °F 43% 30.33 in 6.0 mi NNW 5.8 mph - N/A   Smoke